CZ-6A DEB

Satellite information

Favourite Embed

Satellite Type and Status

DEBRISIN ORBIT

Key statistics

Satellite CZ-6A DEB at a glance.

Uptime

275

Days in orbit

Revolutions

≈ 14.6

Per day

Orbit

LEO

Low Earth Orbit

Inclination

88.9

Latest

Satellite identification and parameters

Extended collection of information and parameters for CZ-6A DEB.

Object identification

Identified? True

Debris? True

Object name: CZ-6A DEB

International designator: 2024-140DW

Object number (NORAD): 60717

Object ID (CCSDS): 60717

Country: PEOPLES REPUBLIC OF CHINA (PRC)

Current information (Y/N): Y

RCS size: MEDIUM

Orbital parameters

Period: 98.409 minutes

Inclination: 88.9267 deg

SMA: 7060.731 km

Apoapsis: 813.198 km

Periapsis: 551.993 km

RAAN: 315.9709 deg

Eccentricy: 0.018497

Argument of periapsis: 129.0882 deg

Mean anomaly: 232.695 deg

Mean motion: 14.63282834 rev/day

Mean motion (dot): 0.00019587 rev/day2

B* drag term: 0.0029543 1/REarth

Two-line elements (TLE)

Creation date: May 8, 2025, 3:01 a.m.

Reference frame: TEME

Reference center: EARTH

Epoch: May 7, 2025, 6:43 p.m. UTC

TLE line 0: 0 CZ-6A DEB

TLE line 1: 1 60717U 24140DW 25127.78011856 .00019587 00000-0 29543-2 0 9990

TLE line 2: 2 60717 88.9267 315.9709 0184970 129.0882 232.6950 14.63282834 39051

Live tracking on map

Real-time ground track for satellite CZ-6A DEB.

In-orbit conjunctions

A list of the most updated potential collisions computed for object CZ-6A DEB.

Target Orbit TCA Probability of collision Miss distance Type
FENGYUN 1C DEB SSO 2025-02-11 08:02:50 0.0001136427 522.0 (m) DEBRIS
DMSP 5D-2 F11 DEB SSO 2025-02-06 13:16:23 0.0002042053 368.0 (m) DEBRIS
NOAA 16 DEB SSO 2025-01-05 18:03:26 0.0002242433 193.0 (m) DEBRIS
PEGASUS R/B LEO 2024-12-23 08:18:12 0.001081901 562.0 (m) ROCKET BODY
FENGYUN 1C DEB SSO 2024-11-28 12:49:27 0.0001082935 250.0 (m) DEBRIS

Associated space launch

18 Low Earth Orbit communication satellites with Ku, Q and V band payloads for the G60 constellation operated by Shanghai Spacecom Satellite Technology (SSST) with funding backed by the Shanghai local government. Initial constellation will consist of 1296 satellites by 2027 with long term plans to expand it to 12000 satellites.

CZ-6A DEB was lifted into orbit during the mission ‘Long March 6A | G60 Polar Group 01’, on board a Long March 6A space rocket.

The launch took place on Aug. 6, 2024, 6:42 a.m. from Launch Complex 9A.

For more information about the launch, click the button.

Launch to space Long March 6A | G60 Polar Group 01
Long March 6A | G60 Polar Group 01

Agency: N/A

Status: Launch Successful

Launch date: Aug. 6, 2024, 6:42 a.m. UTC

Rocket: Long March 6A

Launch pad: Launch Complex 9A

Location: Taiyuan Satellite Launch Center, People's Republic of China

...

Latest news about this satellite

News about space launch
Brightness of first Chinese broadband constellation satellites alarms astronomers

The first satellites of a Chinese broadband constellation are significantly brighter than those of Western systems, posing a new challenge for astronomers.

News about space launch
Chinese rocket stage breaks up into cloud of more than 700 pieces of space debris

HELSINKI — A Chinese Long March 6A rocket’s upper stage has fragmented into a cloud of over 700 pieces of space debris, adding to concerns about long-term orbital safety. China […]

News about space launch
China's Thousand Sails Megaconstellation Kicks Off with Dangerous Debris Field

China's Thousand Sails Megaconstellation Kicks Off with Dangerous Debris Field


Newsletter sign-up

Weekly statistics, charts and insights to help you stay on top of the space industry.